• Join FlightAware (Why Join?)
  • Login
  • US Flag 
09:49AM EDT


 

Airport Tracker/Info


-or-


 

Live Flight TrackerFlight Track Log ✈ UAL5829 ✈ 19-Jul-2013 ✈ KORD - KLEX

Flight Track Log - Related Links

Times and Time Zones

All times are in EDT time to prevent confusion due to time zone crossing. See the UAL5829 flight status page for this flight to view local times or setup timezone preferences in your user account.

Time Position Orientation Groundspeed Altitude Reporting Facility
EDT Latitude Longitude Course Direction KTS MPH feet Rate Location/Type
11:15PM 41.9333 -87.9500 169° South 193 222 4,200  Level Chicago TRACON
11:16PM 41.8833 -87.9667 194° South 221 254 5,700 1,560 Climbing Chicago TRACON
11:17PM 41.8206 -88.0000 202° Southwest 240 276 7,200 1,920 Climbing Chicago Center
11:18PM 41.6416 -87.6035 156° South  Level Estimated
11:18PM 41.7525 -88.0356 201° Southwest 261 300 9,600  Level Chicago Center
11:19PM 41.5398 -87.5928 175° South  Level FlightAware Approximate
11:19PM 41.6853 -88.0742 203° Southwest 265 305 11,700  Level Chicago Center
11:20PM 41.4554 -87.5163 169° South  Level Estimated
11:20PM 41.6117 -88.0875 188° South 287 330 13,400  Level Chicago Center
11:21PM 41.3559 -87.5515 169° South  Level FlightAware Approximate
11:21PM 41.5317 -88.0622 167° South 298 343 15,000  Level Chicago Center
11:22PM 41.4614 -87.9867 141° Southeast 331 381 16,000 1,140 Climbing Chicago Center
11:23PM 41.4022 -87.8822 127° Southeast 345 397 17,400 1,560 Climbing Chicago Center
11:24PM 41.3297 -87.7553 127° Southeast 358 412 19,300 1,260 Climbing Chicago Center
11:25PM 41.2669 -87.6453 127° Southeast 371 427 20,000 660 Climbing Chicago Center
11:26PM 41.1892 -87.5400 134° Southeast 403 464 20,700 900 Climbing Chicago Center
11:27PM 41.0817 -87.5019 165° South 404 465 21,900 1,140 Climbing Chicago Center
11:28PM 40.9736 -87.4722 168° South 398 458 23,100 1,200 Climbing Chicago Center
11:29PM 40.8686 -87.4444 169° South 390 449 24,400 1,260 Climbing Chicago Center
11:31PM 40.7622 -87.4183 169° South 390 449 25,700 1,200 Climbing Chicago Center
11:32PM 40.6592 -87.3903 168° South 382 440 26,900 600 Climbing Chicago Center
11:33PM 40.5525 -87.3619 169° South 391 450 27,000  Climbing Chicago Center
11:34PM 40.4264 -87.3242 167° South 421 484 27,000  Level Chicago Center
11:35PM 40.3100 -87.2692 160° South 444 511 27,000  Level Chicago Center
11:36PM 40.2086 -87.1692 143° Southeast 463 533 27,000  Level Chicago Center
11:37PM 40.1117 -87.0494 137° Southeast 472 543 27,000  Level Indianapolis Center
11:38PM 39.9964 -86.9083 137° Southeast 476 548 27,000  Level Indianapolis Center
11:39PM 39.8997 -86.7908 137° Southeast 479 551 27,000  Level Indianapolis Center
11:40PM 39.8044 -86.6747 137° Southeast 476 548 27,000  Level Indianapolis Center
11:41PM 39.7089 -86.5600 137° Southeast 474 545 27,000  Level Indianapolis Center
11:42PM 39.6136 -86.4456 137° Southeast 477 549 27,000  Level Indianapolis Center
11:43PM 39.5194 -86.3311 137° Southeast 475 547 27,000 -60 Level Indianapolis Center
11:44PM 39.4233 -86.2164 137° Southeast 475 547 26,900 -960 Descending Indianapolis Center
11:45PM 39.3056 -86.0769 137° Southeast 481 554 25,100 -1,680 Descending Indianapolis Center
11:46PM 39.2089 -85.9628 138° Southeast 476 548 23,600 -1,080 Descending Indianapolis Center
11:47PM 39.1172 -85.8542 137° Southeast 456 525 23,000 -300 Descending Indianapolis Center
11:48PM 39.0244 -85.7456 138° Southeast 452 520 23,000  Level Indianapolis Center
11:49PM 38.9325 -85.6372 137° Southeast 452 520 23,000  Level Indianapolis Center
11:50PM 38.8403 -85.5300 138° Southeast 450 518 23,000 -240 Level Indianapolis Center
11:51PM 38.7478 -85.4228 138° Southeast 449 517 22,600 -1,680 Descending Indianapolis Center
11:52PM 38.6556 -85.3167 138° Southeast 447 514 19,700 -3,000 Descending Indianapolis Center
11:53PM 38.5631 -85.2081 137° Southeast 428 493 16,600 -2,760 Descending Indianapolis Center
11:54PM 38.4817 -85.1144 138° Southeast 395 455 14,200 -2,580 Descending Indianapolis Center
11:55PM 38.4008 -85.0236 139° Southeast 387 445 11,500 -1,860 Descending Indianapolis Center
11:56PM 38.3292 -84.9342 136° Southeast 368 423 10,500 -1,200 Descending Indianapolis Center
11:57PM 38.2689 -84.8417 130° Southeast 301 346 9,100 -1,680 Descending Indianapolis Center
11:58PM 38.2153 -84.7639 131° Southeast 286 329 7,100 -2,220 Descending Indianapolis Center
11:59PM 38.1819 -84.6825 118° Southeast 268 308 4,700 -1,860 Descending Indianapolis Center
12:00AM 38.1531 -84.6053 115° Southeast 254 292 3,400 -1,140 Descending Indianapolis Center
12:01AM 38.1133 -84.5550 135° Southeast 227 261 2,500 -840 Descending Indianapolis Center
12:02AM 38.0728 -84.5656 192° South 175 201 1,800 -420 Descending Indianapolis Center
12:03AM 38.0492 -84.5925 222° Southwest 165 190 1,700 -120 Descending Indianapolis Center